Regional Weather Roundup
Issued by NWS

Home | Current Version | Previous Version | Graphics & Text | Print | Product List | Glossary Off
Versions: 1 2 3 4 5 6 7 8 9 10 11 12 13 14 15 16 17 18 19 20 21 22 23 24 25 26 27 28 29 30 31 32 33 34 35 36 37 38 39 40 41 42 43 44 45 46 47 48 49 50

000
ASUS43 KDMX 171401
RWRIA

WEATHER ROUNDUP FOR IOWA
NATIONAL WEATHER SERVICE DES MOINES IA
800 AM CST SUN DEC 17 2017

NOTE: "FAIR" INDICATES FEW OR NO CLOUDS BELOW 12,000 FEET WITH NO
SIGNIFICANT WEATHER AND/OR OBSTRUCTIONS TO VISIBILITY.

* - THESE STATIONS ARE NOT NWS STATIONS...THUS NOT UNDER NWS
QUALITY CONTROL.  THEY ALSO DO NOT REPORT WEATHER SUCH
AS PRECIPITATION OR FOG.

IAZ001>003-012>014-020>022-031>034-043>046-171500-
   NORTHWEST IOWA

CITY           SKY/WX    TMP DP  RH WIND       PRES   REMARKS
CARROLL *      CLOUDY    25  23  93 N12       30.01S FOG     WCI  14
LE MARS *      CLOUDY    28  27  93 NE7       30.04R WCI  21
ORANGE CITY *  CLOUDY    27  27 100 NE8       30.02R FOG     WCI  18
SHELDON *      CLOUDY    25  25 100 NE9       30.02R FOG     WCI  15
SIOUX CITY     CLOUDY    27  25  92 N6        30.04S WCI  20
SPENCER        CLOUDY    27  25  92 NE9       30.04R FOG     WCI  18
STORM LAKE *   FOG       27  27 100 NE12      30.02R VSB 1/2 WCI  16
$$

IAZ055>058-069>071-079>083-090>094-171500-
   SOUTHWEST IOWA

CITY           SKY/WX    TMP DP  RH WIND       PRES   REMARKS
ATLANTIC *     MOCLDY    28  25  86 NE8       29.99F WCI  20
AUDUBON *      PTCLDY    27  21  80 N6        30.01R WCI  20
CLARINDA *     LGT RAIN  39  39 100 SW6         N/A  WCI  35
COUNCIL BLFS * CLOUDY    28  28 100 N13       29.97F WCI  18
CRESTON *      CLOUDY    34  27  75 N3        30.00R
HARLAN  *      CLOUDY    27  27 100 NE10      30.03F WCI  17
LAMONI         CLOUDY    42  31  64 SW14      30.00R
RED OAK *      CLOUDY    32  28  86 CALM      29.99S
SHENANDOAH *   LGT RAIN  34  32  93 N3        30.00S
$$

IAZ047>049-059>061-072>074-084-171500-
   CENTRAL IOWA

CITY           SKY/WX    TMP DP  RH WIND       PRES   REMARKS
AMES           MOCLDY    28  27  96 NE6       30.01R WCI  22
ANKENY *       CLOUDY    28  25  86 CALM      30.02R
BOONE *        MOCLDY    27  25  93 N8        29.99S FOG     WCI  18
CHARITON *     CLOUDY    34  28  80 CALM      29.99R
DES MOINES     CLOUDY    32  25  75 CALM      30.00R
GRINNELL*      CLOUDY    29  26  90 E7        30.01R WCI  22
KNOXVILLE *    CLOUDY    32  25  74 E5        29.98S WCI  27
MARSHALLTOWN   CLOUDY    28  27  96 E7        30.01R FOG     WCI  21
NEWTON *       MOCLDY    30  27  86 NE6       30.00R WCI  24
PELLA *        CLOUDY    32  26  78 E6        30.01R WCI  26
$$

IAZ004>006-015-016-023>025-035-036-171500-
   NORTH CENTRAL IOWA

CITY           SKY/WX    TMP DP  RH WIND       PRES   REMARKS
ALGONA *       CLOUDY    25  25 100 NE10      30.04R WCI  15
CLARION *      FOG       28  28 100 E10       30.03R VSB 1/2 WCI  19
ESTHERVILLE    CLOUDY    23  23 100 N13       30.03F FOG     WCI  11
FORT DODGE *   FOG       23  22  96 NE8       30.04R VSB 3/4 WCI  14
MASON CITY     FOG       27  25  92 NE9       30.05R VSB 3/4 WCI  18
FOREST CITY *  CLOUDY    27  27 100 NE3       30.04R FOG
WEBSTER CITY * CLOUDY    27  27 100 NE8       30.01R FOG     WCI  18
IOWA FALLS *   CLOUDY    29  28  96 E9        30.04R FOG     WCI  21
$$

IAZ007>011-017>019-026>030-037>042-050>054-066-171500-
   NORTHEAST IOWA

CITY           SKY/WX    TMP DP  RH WIND       PRES   REMARKS
CEDAR RAPIDS   CLOUDY    30  28  92 E8        30.01R FOG     WCI  22
CHARLES CITY * FOG       28  28 100 NE12      30.04R VSB 3/4 WCI  18
CLINTON *      CLOUDY    32  31  96 E10       30.04S FOG     WCI  24
DECORAH *      CLOUDY    28  28 100 E6        30.05R FOG     WCI  22
DUBUQUE        CLOUDY    31  30  96 NE9       30.04R FOG     WCI  23
MONTICELLO *   CLOUDY    32  30  93 E7        30.04R FOG     WCI  26
OELWEIN *      CLOUDY    30  30 100 NE13      30.03R FOG     WCI  20
WATERLOO       CLOUDY    29  28  96 NE7       30.04R FOG     WCI  22
$$

IAZ064-065-067-068-078-171500-
   EAST CENTRAL IOWA

CITY           SKY/WX    TMP DP  RH WIND       PRES   REMARKS
DAVENPORT      CLOUDY    30  28  92 E10       30.04S FOG     WCI  21
IOWA CITY      CLOUDY    33  28  81 E8        30.03S HAZE    WCI  26
MT. PLEASANT * CLOUDY    33  26  76 CALM      30.00S
MUSCATINE *    CLOUDY    32  27  80 CALM      30.02F
QUAD CITIES    CLOUDY    32  29  88 E7        30.02S FOG     WCI  26
$$

IAZ062-063-075>077-085>089-095>099-171500-
   SOUTHEAST IOWA

CITY           SKY/WX    TMP DP  RH WIND       PRES   REMARKS
BURLINGTON     CLOUDY    38  29  70 S6        29.99F WCI  33
FAIRFIELD *    CLOUDY    32  27  80 NE3       29.99S
FORT MADISON * CLOUDY    43  28  56 S7        30.00F
KEOKUK *       CLOUDY    43  28  56 S7        30.00S
OSKALOOSA *      N/A     30  26  84 E5        30.01R WCI  25
OTTUMWA        CLOUDY    31  25  78 NE6       29.99R WCI  25
WASHINGTON *   CLOUDY    30  28  93 NE5       30.01S WCI  25
$$

ABBREVIATIONS USED IN REMARKS
   TC - TEMPERATURES IN CELSIUS
  WCI - WIND CHILL INDEX
   HX - HEAT INDEX
  VSB - VISIBILITY
$$





USA.gov is the U.S. government's official web portal to all federal, state and local government web resources and services.